User: anonymous   Login
Location: Borealis Mine
(38.3824°N, 118.7610°W)
Time: 13:52:13
(UTC+00:00)
Language:

Cosmos 1666 - Orbit

View from above orbital plane
View from above orbital plane
View from above satellite
View from above satellite

Ground track
Ground track

The orbit data is extracted from the following two-line orbital elements,

1 15889U 85058A   21206.72403714  .00001128  00000-0  51319-4 0  9991
2 15889  82.4888 305.8492 0015236 240.5246 119.4469 15.19586799969448
Epoch (UTC): 25 July 2021 17:22:36
Eccentricity: 0.0015236
inclination: 82.4888°
perigee height: 496 km
apogee height: 517 km
right ascension of ascending node: 305.8492°
argument of perigee: 240.5246°
revolutions per day: 15.19586799
mean anomaly at epoch: 119.4469°
orbit number at epoch: 96944

The dashed part of the orbit path shows where the satellite is in the earth's shadow,  

DLR